User: anonymous   Login
Location: Homewood
(41.1836°S, 175.9581°E)
Time: 21:57:46
(UTC+00:00)
Language:

ARIANE 5 R/B - Orbit

View from above orbital plane
View from above orbital plane
View from above satellite
View from above satellite

Ground track
Ground track

The orbit data is extracted from the following two-line orbital elements,

1 27387U 02009B   24170.54921428  .00000159  00000-0  69489-4 0  9992
2 27387  98.7976 160.6816 0033292 115.7952 244.6674 14.36403442168696
Epoch (UTC): 18 June 2024 13:10:52
Eccentricity: 0.0033292
inclination: 98.7976°
perigee height: 746 km
apogee height: 794 km
right ascension of ascending node: 160.6816°
argument of perigee: 115.7952°
revolutions per day: 14.36403442
mean anomaly at epoch: 244.6674°
orbit number at epoch: 16869

The dashed part of the orbit path shows where the satellite is in the earth's shadow,  

DLR